This demonstration page uses our WeatherBlox Daily Observations layout. Learn more.

Left ArrowRight Arrow

Hourly Observations for January 25, 2022

Temp ( °F °C ) Dew Point ( °F °C ) Humidity (%) Winds ( mph kmh ) Pressure ( in mb ) Visibility ( mi km ) Precip ( " mm )
12:56 am 00:56 Mostly Clear 11 -11.7 6 -14.4 81 81 ENE 8 13 30.25 1024 10 16 0.00 0.00
1:56 am 01:56 Mostly Cloudy 11 -11.7 6 -14.4 81 81 ENE 7 11 30.27 1025 10 16 0.00 0.00
2:56 am 02:56 Cloudy 13 -10.6 6 -14.4 74 74 ENE 8 13 30.27 1025 10 16 0.00 0.00
3:07 am 03:07 Mostly Cloudy 12 -11 7 -14 79 79 ENE 7 11 30.40 1030 10 16 0.00 0.00
3:56 am 03:56 Cloudy 12 -11.1 6 -14.4 77 77 ENE 7 11 30.29 1026 10 16 0.00 0.00
4:56 am 04:56 Partly Cloudy 11 -11.7 6 -14.4 81 81 NE 5 7 30.30 1026 10 16 0.00 0.00
5:56 am 05:56 Cloudy 11 -11.7 6 -14.4 81 81 E 5 7 30.33 1027 10 16 0.00 0.00
6:56 am 06:56 Mostly Cloudy 11 -11.7 6 -14.4 81 81 ENE 5 7 30.37 1028 10 16 0.00 0.00
7:56 am 07:56 Partly Cloudy 9 -12.8 5 -15 84 84 E 5 7 30.38 1029 10 16 0.00 0.00
8:32 am 08:32 Mostly Cloudy 10 -12 5 -15 79 79 E 7 11 30.49 1033 10 16 0.00 0.00
8:48 am 08:48 Partly Cloudy 10 -12 5 -15 79 79 E 7 11 30.49 1033 10 16 0.00 0.00
8:56 am 08:56 Mostly Sunny 11 -11.7 5 -15 77 77 E 7 11 30.40 1030 10 16 0.00 0.00
9:56 am 09:56 Mostly Cloudy 13 -10.6 6 -14.4 74 74 E 5 7 30.42 1030 10 16 0.00 0.00
10:24 am 10:24 Cloudy 14 -10 5 -15 67 67 Calm 30.53 1034 10 16 0.00 0.00
10:56 am 10:56 Cloudy 15 -9.4 4 -15.6 61 61 Calm 30.46 1032 10 16 0.00 0.00
11:56 am 11:56 Cloudy 15 -9.4 5 -15 64 64 N 5 7 30.48 1032 10 16 0.00 0.00
12:56 pm 12:56 Cloudy with Light Snow 16 -8.9 9 -12.8 74 74 N 7 11 30.48 1032 9 14 0.00 0.00
1:56 pm 13:56 Cloudy with Light Snow 16 -8.9 11 -11.7 80 80 NNE 7 11 30.49 1032 9 14 0.00 0.00
2:56 pm 14:56 Cloudy with Light Snow 17 -8.3 12 -11.1 80 80 NNE 5 7 30.48 1032 9 14 0.00 0.00
3:56 pm 15:56 Cloudy 17 -8.3 11 -11.7 77 77 Calm 30.50 1033 10 16 0.00 0.00
4:56 pm 16:56 Cloudy 18 -7.8 12 -11.1 77 77 Calm 30.51 1033 10 16 0.00 0.00
5:56 pm 17:56 Cloudy 18 -7.8 12 -11.1 77 77 Calm 30.52 1034 10 16 0.00 0.00
6:56 pm 18:56 Cloudy 18 -7.8 12 -11.1 77 77 Calm 30.54 1034 10 16 0.00 0.00
7:56 pm 19:56 Cloudy 19 -7.2 12 -11.1 74 74 Calm 30.55 1035 10 16 0.00 0.00
8:56 pm 20:56 Cloudy 19 -7.2 12 -11.1 74 74 S 3 6 30.56 1035 10 16 0.00 0.00
9:56 pm 21:56 Cloudy 19 -7.2 13 -10.6 77 77 S 7 11 30.55 1034 10 16 0.00 0.00
10:56 pm 22:56 Cloudy 19 -7.2 13 -10.6 77 77 SSW 7 11 30.53 1034 10 16 0.00 0.00
11:56 pm 23:56 Cloudy 19 -7.2 13 -10.6 77 77 SSW 7 11 30.51 1033 10 16 0.00 0.00

Powered by AerisWeather